Météo par heure à Kiszewy

Ce jour, 24 Février, Mercredi

Heure Température Précipitation Vent Pression Humidité
00:00 +7°C° 0 mm 3 m/s 764 mmHg 83%
01:00 +7°C° 0 mm 3 m/s 764 mmHg 87%
02:00 +7°C° 0 mm 3 m/s 763 mmHg 88%
03:00 +5°C° 0 mm 3 m/s 763 mmHg 89%
04:00 +5°C° 0 mm 3 m/s 763 mmHg 90%
05:00 +5°C° 0 mm 3 m/s 763 mmHg 90%
06:00 +6°C° 0 mm 2 m/s 763 mmHg 90%
07:00 +6°C° 0 mm 2 m/s 764 mmHg 89%
08:00 +7°C° 0 mm 3 m/s 764 mmHg 85%
09:00 +8°C° 0 mm 3 m/s 763 mmHg 82%
10:00 +8°C° 0 mm 4 m/s 763 mmHg 78%
11:00 +11°C° 0 mm 3 m/s 763 mmHg 74%
12:00 +12°C° 0 mm 3 m/s 763 mmHg 70%
13:00 +13°C° 0 mm 3 m/s 763 mmHg 67%
14:00 +13°C° 0 mm 3 m/s 763 mmHg 68%
15:00 +13°C° 0 mm 3 m/s 762 mmHg 70%
16:00 +13°C° 0 mm 3 m/s 762 mmHg 71%
17:00 +12°C° 0 mm 3 m/s 762 mmHg 74%
18:00 +11°C° 0 mm 3 m/s 762 mmHg 76%
19:00 +10°C° 0 mm 3 m/s 762 mmHg 79%
20:00 +10°C° 0 mm 3 m/s 762 mmHg 80%
21:00 +9°C° 0 mm 3 m/s 762 mmHg 80%
22:00 +9°C° 0 mm 3 m/s 762 mmHg 81%
23:00 +9°C° 0 mm 3 m/s 762 mmHg 82%

Demain, 25 Février, Jeudi

Heure Température Précipitation Vent Pression Humidité
00:00 +8°C° 0 mm 3 m/s 762 mmHg 83%
01:00 +8°C° 0 mm 2 m/s 762 mmHg 84%
02:00 +7°C° 0 mm 2 m/s 761 mmHg 84%
03:00 +7°C° 0 mm 3 m/s 761 mmHg 85%
04:00 +7°C° 0 mm 3 m/s 761 mmHg 85%
05:00 +5°C° 0 mm 3 m/s 761 mmHg 85%
06:00 +6°C° 0 mm 2 m/s 761 mmHg 85%
07:00 +6°C° 0 mm 2 m/s 761 mmHg 85%
08:00 +8°C° 0 mm 3 m/s 761 mmHg 79%
09:00 +9°C° 0 mm 3 m/s 760 mmHg 74%
10:00 +11°C° 0 mm 3 m/s 760 mmHg 68%
11:00 +12°C° 0 mm 3 m/s 760 mmHg 64%
12:00 +13°C° 0 mm 3 m/s 760 mmHg 60%
13:00 +16°C° 0 mm 3 m/s 759 mmHg 56%
14:00 +16°C° 0 mm 3 m/s 759 mmHg 57%
15:00 +14°C° 0 mm 3 m/s 758 mmHg 59%
16:00 +14°C° 0 mm 3 m/s 758 mmHg 61%
17:00 +13°C° 0 mm 3 m/s 758 mmHg 66%
18:00 +12°C° 0 mm 3 m/s 758 mmHg 72%
19:00 +10°C° 0 mm 3 m/s 758 mmHg 77%
20:00 +10°C° 0 mm 3 m/s 758 mmHg 79%
21:00 +8°C° 0 mm 4 m/s 758 mmHg 81%
22:00 +8°C° 0 mm 4 m/s 758 mmHg 84%
23:00 +7°C° 0 mm 4 m/s 758 mmHg 86%

Après-demain, 26 Février, Vendredi

Heure Température Précipitation Vent Pression Humidité
00:00 +7°C° 0 mm 4 m/s 759 mmHg 88%
01:00 +7°C° 0 mm 3 m/s 759 mmHg 90%
02:00 +7°C° 0 mm 3 m/s 759 mmHg 92%
03:00 +7°C° 0 mm 3 m/s 759 mmHg 93%
04:00 +5°C° 0 mm 3 m/s 758 mmHg 94%
05:00 +5°C° 0 mm 3 m/s 759 mmHg 95%
06:00 +5°C° 0 mm 3 m/s 759 mmHg 95%
07:00 +4°C° 0 mm 3 m/s 759 mmHg 96%
08:00 +5°C° 0 mm 3 m/s 759 mmHg 92%
09:00 +7°C° 0 mm 3 m/s 759 mmHg 87%
10:00 +8°C° 0 mm 3 m/s 759 mmHg 83%
11:00 +7°C° 0 mm 4 m/s 759 mmHg 81%
12:00 +7°C° 0 mm 4 m/s 759 mmHg 79%
13:00 +7°C° 0 mm 4 m/s 758 mmHg 78%
14:00 +6°C° 0.1 mm 4 m/s 758 mmHg 78%
15:00 +6°C° 0.1 mm 4 m/s 758 mmHg 78%
16:00 +6°C° 0.1 mm 4 m/s 758 mmHg 77%
17:00 +5°C° 0 mm 4 m/s 758 mmHg 80%
18:00 +4°C° 0 mm 4 m/s 758 mmHg 82%
19:00 +3°C° 0 mm 5 m/s 758 mmHg 84%
20:00 +2°C° 0 mm 5 m/s 759 mmHg 85%
21:00 +2°C° 0 mm 5 m/s 759 mmHg 86%
22:00 +1°C° 0 mm 5 m/s 759 mmHg 87%
23:00 +1°C° 0 mm 5 m/s 759 mmHg 88%

27 Février, Samedi

Heure Température Précipitation Vent Pression Humidité
00:00 +1°C° 0 mm 5 m/s 759 mmHg 89%
01:00 +1°C° 0 mm 5 m/s 759 mmHg 89%
02:00 +1°C° 0 mm 5 m/s 759 mmHg 90%
03:00 0°C° 0 mm 5 m/s 759 mmHg 91%
04:00 -1°C° 0 mm 6 m/s 759 mmHg 91%
05:00 0°C° 0 mm 5 m/s 759 mmHg 91%
06:00 0°C° 0 mm 5 m/s 759 mmHg 90%
07:00 +1°C° 0 mm 5 m/s 760 mmHg 90%
08:00 +1°C° 0 mm 5 m/s 760 mmHg 87%
09:00 +2°C° 0 mm 6 m/s 760 mmHg 84%
10:00 +2°C° 0 mm 6 m/s 761 mmHg 81%
11:00 +3°C° 0 mm 6 m/s 761 mmHg 78%
12:00 +3°C° 0 mm 6 m/s 761 mmHg 76%
13:00 +4°C° 0 mm 6 m/s 762 mmHg 73%
14:00 +5°C° 0 mm 5 m/s 762 mmHg 71%
15:00 +5°C° 0 mm 5 m/s 762 mmHg 68%
16:00 +6°C° 0 mm 4 m/s 762 mmHg 66%
17:00 +4°C° 0 mm 4 m/s 762 mmHg 71%
18:00 +3°C° 0 mm 3 m/s 762 mmHg 76%
19:00 +2°C° 0 mm 3 m/s 763 mmHg 81%
20:00 +2°C° 0 mm 3 m/s 763 mmHg 83%
21:00 +1°C° 0 mm 3 m/s 763 mmHg 85%
22:00 +1°C° 0 mm 2 m/s 763 mmHg 87%
23:00 +1°C° 0 mm 2 m/s 764 mmHg 87%

28 Février, Dimanche

Heure Température Précipitation Vent Pression Humidité
00:00 -1°C° 0 mm 2 m/s 764 mmHg 88%
01:00 -1°C° 0 mm 2 m/s 764 mmHg 88%
02:00 -1°C° 0 mm 2 m/s 764 mmHg 87%
03:00 -1°C° 0 mm 2 m/s 764 mmHg 86%
04:00 -1°C° 0 mm 2 m/s 763 mmHg 85%
05:00 -1°C° 0 mm 2 m/s 763 mmHg 83%
06:00 -1°C° 0 mm 2 m/s 764 mmHg 82%
07:00 -1°C° 0 mm 2 m/s 764 mmHg 81%
08:00 +1°C° 0 mm 2 m/s 764 mmHg 75%
09:00 +2°C° 0 mm 2 m/s 764 mmHg 70%
10:00 +3°C° 0 mm 3 m/s 764 mmHg 65%
11:00 +5°C° 0 mm 2 m/s 764 mmHg 62%
12:00 +6°C° 0 mm 2 m/s 764 mmHg 59%
13:00 +7°C° 0 mm 2 m/s 764 mmHg 57%
14:00 +6°C° 0 mm 2 m/s 764 mmHg 62%
15:00 +7°C° 0 mm 1 m/s 764 mmHg 67%
16:00 +7°C° 0 mm 1 m/s 763 mmHg 72%
17:00 +6°C° 0.1 mm 1 m/s 764 mmHg 77%
18:00 +5°C° 0.1 mm 1 m/s 764 mmHg 83%
19:00 +4°C° 0.1 mm 1 m/s 764 mmHg 89%
20:00 +4°C° 0 mm 1 m/s 764 mmHg 91%
21:00 +4°C° 0 mm 1 m/s 765 mmHg 92%
22:00 +4°C° 0 mm 1 m/s 765 mmHg 94%
23:00 +4°C° 0 mm 1 m/s 765 mmHg 94%

1 Mars, Lundi

Heure Température Précipitation Vent Pression Humidité
00:00 +3°C° 0 mm 1 m/s 765 mmHg 94%
01:00 +3°C° 0 mm 1 m/s 766 mmHg 94%
02:00 +2°C° 0 mm 1 m/s 766 mmHg 94%
03:00 +2°C° 0 mm 1 m/s 766 mmHg 94%
04:00 +2°C° 0 mm 1 m/s 766 mmHg 94%
05:00 +2°C° 0 mm 1 m/s 766 mmHg 94%
06:00 +2°C° 0 mm 1 m/s 766 mmHg 94%
07:00 +1°C° 0 mm 1 m/s 766 mmHg 95%
08:00 +3°C° 0 mm 1 m/s 766 mmHg 89%
09:00 +4°C° 0 mm 1 m/s 766 mmHg 84%
10:00 +5°C° 0 mm 1 m/s 766 mmHg 78%
11:00 +6°C° 0 mm 1 m/s 766 mmHg 74%
12:00 +7°C° 0 mm 1 m/s 766 mmHg 70%
13:00 +8°C° 0 mm 1 m/s 766 mmHg 66%
14:00 +8°C° 0 mm 1 m/s 766 mmHg 65%
15:00 +8°C° 0 mm 1 m/s 766 mmHg 65%
16:00 +8°C° 0 mm 1 m/s 766 mmHg 64%
17:00 +7°C° 0 mm 1 m/s 766 mmHg 69%
18:00 +6°C° 0 mm 1 m/s 766 mmHg 74%
19:00 +5°C° 0 mm 1 m/s 766 mmHg 79%
20:00 +4°C° 0 mm 1 m/s 766 mmHg 81%
21:00 +4°C° 0 mm 1 m/s 766 mmHg 82%
22:00 +4°C° 0 mm 1 m/s 766 mmHg 84%
23:00 +3°C° 0 mm 1 m/s 766 mmHg 85%
Voir plus

Nous avons besoin de votre consentement

Meteoprog et ses fournisseurs de services peuvent stocker et accéder à des données personnelles telles que des cookies, des identifiants d'appareils ou d'autres technologies similaires sur votre appareil et traiter ces données pour personnaliser le contenu et les publicités, ainsi que pour fournir des fonctionnalités de médias sociaux et analyser le trafic.

  • Stocker et/ou accéder à des informations sur votre appareil

    Des cookies, des identifiants d'appareils ou d'autres informations peuvent être stockés ou accessibles sur votre appareil aux fins indiquées ci-dessus.

  • Annonces et contenus personnalisés, mesure des annonces et des contenus, connaissance de l'audience et développement de produits

    Les annonces et le contenu peuvent être personnalisés en fonction d'un profil. D'autres données peuvent être ajoutées pour mieux personnaliser les annonces et le contenu. Les performances des publicités et du contenu peuvent être mesurées. Il est possible d'obtenir des informations sur le public qui a vu les publicités et le contenu. Ces données peuvent être utilisées pour développer ou améliorer l'expérience de l'utilisateur, les systèmes et les logiciels.

En cliquant sur "J'accepte", vous autorisez l'utilisation de cookies, des identifiants d'appareils, des balises web ou d'autres technologies similaires. Vos paramètres peuvent être modifiés dans le navigateur de votre appareil.

Dans certains cas, des intérêts légitimes peuvent être invoqués plutôt qu'un consentement. Vous pouvez en savoir plus à ce sujet dans notre Politique de confidentialité et de cookies.